| time (UTC) | temp F | wind direction | speed MPH | gust MPH | rain 1hr in | rain 24hr in | rain mn in | humidity % | barometer mb |
| 20260504223131 | 78 | 57 | 0.0 | 2.0 | 0.00 | 0.00 | 0.00 | 32 | 1009.8 |
| 20260504222628 | 78 | 133 | 3.0 | 3.0 | 0.00 | 0.00 | 0.00 | 32 | 1009.7 |
| 20260504222125 | 78 | 18 | 2.0 | 5.0 | 0.00 | 0.00 | 0.00 | 31 | 1009.5 |
| 20260504221623 | 78 | 23 | 1.0 | 2.0 | 0.00 | 0.00 | 0.00 | 32 | 1009.7 |
| 20260504221119 | 78 | 307 | 4.0 | 5.0 | 0.00 | 0.00 | 0.00 | 29 | 1009.6 |
| 20260504220616 | 78 | 109 | 2.0 | 2.0 | 0.00 | 0.00 | 0.00 | 29 | 1009.6 |
| 20260504220114 | 79 | 310 | 2.0 | 3.0 | 0.00 | 0.00 | 0.00 | 29 | 1009.9 |
| 20260504215609 | 79 | 340 | 4.0 | 5.0 | 0.00 | 0.00 | 0.00 | 29 | 1009.5 |
| 20260504215107 | 79 | 324 | 2.0 | 5.0 | 0.00 | 0.00 | 0.00 | 29 | 1009.5 |
| 20260504214603 | 79 | 292 | 5.0 | 7.0 | 0.00 | 0.00 | 0.00 | 27 | 1009.8 |
| 20260504214059 | 79 | 222 | 4.0 | 6.0 | 0.00 | 0.00 | 0.00 | 29 | 1009.5 |
| 20260504213556 | 79 | 345 | 3.0 | 6.0 | 0.00 | 0.00 | 0.00 | 29 | 1009.5 |
| 20260504213053 | 79 | 284 | 3.0 | 5.0 | 0.00 | 0.00 | 0.00 | 26 | 1009.6 |
| 20260504212549 | 79 | 300 | 5.0 | 6.0 | 0.00 | 0.00 | 0.00 | 28 | 1009.8 |
| 20260504212046 | 79 | 320 | 3.0 | 3.0 | 0.00 | 0.00 | 0.00 | 25 | 1009.7 |
| 20260504211543 | 79 | 337 | 2.0 | 5.0 | 0.00 | 0.00 | 0.00 | 26 | 1009.7 |
| 20260504211040 | 80 | 51 | 0.0 | 2.0 | 0.00 | 0.00 | 0.00 | 25 | 1009.6 |
| 20260504210537 | 80 | 10 | 3.0 | 3.0 | 0.00 | 0.00 | 0.00 | 27 | 1009.8 |
| 20260504210034 | 80 | 47 | 0.0 | 1.0 | 0.00 | 0.00 | 0.00 | 27 | 1009.7 |
| 20260504205532 | 80 | 45 | 0.0 | 2.0 | 0.00 | 0.00 | 0.00 | 27 | 1009.5 |
| 20260504205030 | 80 | 61 | 1.0 | 2.0 | 0.00 | 0.00 | 0.00 | 27 | 1009.8 |
| 20260504204527 | 79 | 49 | 0.0 | 2.0 | 0.00 | 0.00 | 0.00 | 27 | 1009.5 |
| 20260504204026 | 78 | 102 | 3.0 | 5.0 | 0.00 | 0.00 | 0.00 | 30 | 1009.8 |
| 20260504203523 | 78 | 359 | 2.0 | 6.0 | 0.00 | 0.00 | 0.00 | 30 | 1009.8 |
| 20260504203021 | 78 | 330 | 2.0 | 5.0 | 0.00 | 0.00 | 0.00 | 29 | 1009.9 |
| 20260504202516 | 79 | 290 | 3.0 | 5.0 | 0.00 | 0.00 | 0.00 | 29 | 1009.8 |
| 20260504202013 | 79 | 258 | 5.0 | 7.0 | 0.00 | 0.00 | 0.00 | 28 | 1010.0 |
| 20260504201510 | 80 | 52 | 1.0 | 3.0 | 0.00 | 0.00 | 0.00 | 29 | 1010.2 |
| 20260504201008 | 80 | 344 | 3.0 | 5.0 | 0.00 | 0.00 | 0.00 | 29 | 1010.1 |
| 20260504200504 | 79 | 21 | 2.0 | 2.0 | 0.00 | 0.00 | 0.00 | 29 | 1010.1 |
| 20260504200001 | 79 | 326 | 3.0 | 3.0 | 0.00 | 0.00 | 0.00 | 31 | 1010.2 |
| 20260504195457 | 79 | 36 | 0.0 | 2.0 | 0.00 | 0.00 | 0.00 | 29 | 1010.3 |
| 20260504194954 | 78 | 41 | 0.0 | 2.0 | 0.00 | 0.00 | 0.00 | 29 | 1010.2 |
| 20260504194450 | 79 | 322 | 3.0 | 3.0 | 0.00 | 0.00 | 0.00 | 30 | 1010.5 |
| 20260504193945 | 77 | 15 | 1.0 | 3.0 | 0.00 | 0.00 | 0.00 | 30 | 1010.6 |
| 20260504193443 | 76 | 327 | 3.0 | 7.0 | 0.00 | 0.00 | 0.00 | 31 | 1010.7 |
| 20260504192942 | 78 | 294 | 4.0 | 5.0 | 0.00 | 0.00 | 0.00 | 28 | 1011.0 |
| 20260504192438 | 77 | 60 | 1.0 | 3.0 | 0.00 | 0.00 | 0.00 | 29 | 1010.9 |
| 20260504191938 | 77 | 321 | 3.0 | 8.0 | 0.00 | 0.00 | 0.00 | 31 | 1010.9 |
| 20260504191435 | 78 | 63 | 2.0 | 6.0 | 0.00 | 0.00 | 0.00 | 28 | 1011.0 |
| 20260504190930 | 78 | 58 | 1.0 | 2.0 | 0.00 | 0.00 | 0.00 | 31 | 1011.2 |
| 20260504190426 | 78 | 353 | 3.0 | 3.0 | 0.00 | 0.00 | 0.00 | 31 | 1011.4 |
| 20260504185923 | 77 | 16 | 1.0 | 3.0 | 0.00 | 0.00 | 0.00 | 31 | 1011.2 |
| 20260504185420 | 77 | 196 | 3.0 | 3.0 | 0.00 | 0.00 | 0.00 | 30 | 1011.6 |
| 20260504184916 | 76 | 319 | 3.0 | 3.0 | 0.00 | 0.00 | 0.00 | 38 | 1011.5 |
| 20260504184412 | 76 | 339 | 2.0 | 5.0 | 0.00 | 0.00 | 0.00 | 34 | 1011.7 |
| 20260504183908 | 75 | 331 | 3.0 | 5.0 | 0.00 | 0.00 | 0.00 | 33 | 1011.6 |
| 20260504183405 | 77 | 314 | 3.0 | 3.0 | 0.00 | 0.00 | 0.00 | 34 | 1011.6 |
| 20260504182903 | 75 | 31 | 1.0 | 3.0 | 0.00 | 0.00 | 0.00 | 33 | 1011.7 |
| 20260504182400 | 76 | 306 | 4.0 | 6.0 | 0.00 | 0.00 | 0.00 | 34 | 1011.7 |
| 20260504181856 | 76 | 42 | 0.0 | 2.0 | 0.00 | 0.00 | 0.00 | 32 | 1011.6 |
| 20260504181354 | 75 | 293 | 3.0 | 5.0 | 0.00 | 0.00 | 0.00 | 32 | 1012.0 |
| 20260504180853 | 75 | 80 | 1.0 | 3.0 | 0.00 | 0.00 | 0.00 | 32 | 1011.9 |
| 20260504180351 | 74 | 2 | 2.0 | 5.0 | 0.00 | 0.00 | 0.00 | 33 | 1012.0 |
| 20260504175849 | 74 | 284 | 5.0 | 6.0 | 0.00 | 0.00 | 0.00 | 34 | 1012.0 |
| 20260504175345 | 73 | 303 | 5.0 | 8.0 | 0.00 | 0.00 | 0.00 | 37 | 1012.2 |
| 20260504174843 | 73 | 280 | 7.0 | 8.0 | 0.00 | 0.00 | 0.00 | 38 | 1012.1 |
| 20260504174341 | 74 | 108 | 2.0 | 2.0 | 0.00 | 0.00 | 0.00 | 35 | 1012.0 |
| 20260504173837 | 73 | 292 | 4.0 | 6.0 | 0.00 | 0.00 | 0.00 | 38 | 1012.2 |
| 20260504173334 | 73 | 285 | 5.0 | 8.0 | 0.00 | 0.00 | 0.00 | 35 | 1012.4 |
| 20260504172831 | 73 | 62 | 1.0 | 2.0 | 0.00 | 0.00 | 0.00 | 35 | 1012.6 |
| 20260504172328 | 73 | 11 | 2.0 | 2.0 | 0.00 | 0.00 | 0.00 | 37 | 1012.4 |
| 20260504171824 | 72 | 25 | 1.0 | 1.0 | 0.00 | 0.00 | 0.00 | 36 | 1012.3 |
| 20260504171321 | 72 | 279 | 5.0 | 6.0 | 0.00 | 0.00 | 0.00 | 40 | 1012.7 |
| 20260504170818 | 72 | 297 | 3.0 | 3.0 | 0.00 | 0.00 | 0.00 | 38 | 1012.6 |
| 20260504170315 | 71 | 285 | 3.0 | 7.0 | 0.00 | 0.00 | 0.00 | 37 | 1012.4 |
| 20260504160233 | 70 | 333 | 3.0 | 5.0 | 0.00 | 0.00 | 0.00 | 44 | 1013.3 |
| 20260504150659 | 68 | 297 | 5.0 | 6.0 | 0.00 | 0.00 | 0.00 | 45 | 1013.7 |
| 20260504150155 | 67 | 281 | 6.0 | 6.0 | 0.00 | 0.00 | 0.00 | 46 | 1013.8 |
| 20260504141124 | 65 | 301 | 9.0 | 11.0 | 0.00 | 0.00 | 0.00 | 55 | 1013.9 |
| 20260504140621 | 64 | 310 | 4.0 | 7.0 | 0.00 | 0.00 | 0.00 | 57 | 1013.8 |
| 20260504140117 | 64 | 292 | 3.0 | 5.0 | 0.00 | 0.00 | 0.00 | 57 | 1014.2 |
| 20260504130545 | 57 | 8 | 2.0 | 5.0 | 0.00 | 0.00 | 0.00 | 70 | 1013.9 |
| 20260504110433 | 48 | 53 | 0.0 | 0.0 | 0.00 | 0.00 | 0.00 | 91 | 1013.9 |
| 20260504100349 | 48 | 52 | 0.0 | 0.0 | 0.00 | 0.00 | 0.00 | 89 | 1013.5 |
| 20260504081742 | 48 | 52 | 0.0 | 0.0 | 0.00 | 0.00 | 0.00 | 86 | 1013.2 |
| 20260504081239 | 48 | 52 | 0.0 | 0.0 | 0.00 | 0.00 | 0.00 | 87 | 1013.2 |
| 20260504080735 | 48 | 52 | 0.0 | 0.0 | 0.00 | 0.00 | 0.00 | 87 | 1013.1 |
| 20260504080232 | 48 | 52 | 0.0 | 0.0 | 0.00 | 0.00 | 0.00 | 87 | 1013.2 |
| 20260504070159 | 48 | 52 | 0.0 | 0.0 | 0.00 | 0.00 | 0.00 | 90 | 1013.2 |
| 20260504060120 | 51 | 44 | 0.0 | 0.0 | 0.00 | 0.00 | 0.00 | 89 | 1013.2 |
| 20260504050548 | 52 | 41 | 0.0 | 0.0 | 0.00 | 0.00 | 0.00 | 88 | 1013.3 |
| 20260504045542 | 52 | 41 | 0.0 | 1.0 | 0.00 | 0.00 | 0.00 | 88 | 1013.5 |
| 20260504045037 | 52 | 41 | 0.0 | 0.0 | 0.00 | 0.00 | 0.00 | 88 | 1013.4 |
| 20260504044535 | 52 | 41 | 0.0 | 0.0 | 0.00 | 0.00 | 0.00 | 88 | 1013.3 |
| 20260504044032 | 52 | 41 | 0.0 | 0.0 | 0.00 | 0.00 | 0.00 | 88 | 1013.5 |
| 20260504043529 | 53 | 41 | 0.0 | 0.0 | 0.00 | 0.00 | 0.00 | 88 | 1013.5 |
| 20260504043026 | 53 | 41 | 0.0 | 0.0 | 0.00 | 0.00 | 0.00 | 88 | 1013.5 |
| 20260504042523 | 53 | 41 | 0.0 | 0.0 | 0.00 | 0.00 | 0.00 | 88 | 1013.3 |
| 20260504042020 | 53 | 41 | 0.0 | 0.0 | 0.00 | 0.00 | 0.00 | 88 | 1013.3 |
| 20260504041516 | 53 | 41 | 0.0 | 0.0 | 0.00 | 0.00 | 0.00 | 87 | 1013.4 |
| 20260504041012 | 54 | 41 | 0.0 | 0.0 | 0.00 | 0.00 | 0.00 | 87 | 1013.4 |
| 20260504040510 | 54 | 41 | 0.0 | 0.0 | 0.00 | 0.00 | 0.00 | 87 | 1013.2 |
| 20260504040006 | 54 | 41 | 0.0 | 0.0 | 0.00 | 0.01 | 0.01 | 87 | 1013.3 |
| 20260504035503 | 54 | 41 | 0.0 | 0.0 | 0.00 | 0.01 | 0.01 | 87 | 1013.4 |
| 20260504034959 | 54 | 41 | 0.0 | 0.0 | 0.00 | 0.01 | 0.01 | 87 | 1013.2 |
| 20260504034457 | 54 | 41 | 0.0 | 0.0 | 0.00 | 0.01 | 0.01 | 87 | 1013.4 |
| 20260504033954 | 54 | 41 | 0.0 | 0.0 | 0.00 | 0.01 | 0.01 | 86 | 1013.3 |
| 20260504033452 | 54 | 41 | 0.0 | 0.0 | 0.00 | 0.01 | 0.01 | 86 | 1013.2 |
| 20260504032949 | 55 | 41 | 0.0 | 0.0 | 0.00 | 0.01 | 0.01 | 86 | 1013.5 |
| 20260504032446 | 55 | 41 | 0.0 | 0.0 | 0.00 | 0.01 | 0.01 | 86 | 1013.1 |
| 20260504031942 | 55 | 41 | 0.0 | 0.0 | 0.00 | 0.01 | 0.01 | 86 | 1013.3 |
| 20260504031439 | 55 | 41 | 0.0 | 0.0 | 0.00 | 0.01 | 0.01 | 86 | 1013.1 |
| 20260504030936 | 55 | 41 | 0.0 | 1.0 | 0.00 | 0.01 | 0.01 | 85 | 1013.3 |
| 20260504030433 | 55 | 41 | 0.0 | 0.0 | 0.00 | 0.01 | 0.01 | 85 | 1013.2 |
| 20260504025929 | 55 | 41 | 0.0 | 0.0 | 0.00 | 0.01 | 0.01 | 85 | 1013.4 |
| 20260504025426 | 55 | 41 | 0.0 | 0.0 | 0.00 | 0.01 | 0.01 | 84 | 1013.2 |
| 20260504024923 | 55 | 41 | 0.0 | 0.0 | 0.00 | 0.01 | 0.01 | 84 | 1013.4 |
| 20260504024420 | 56 | 41 | 0.0 | 0.0 | 0.00 | 0.01 | 0.01 | 84 | 1013.2 |
| 20260504023917 | 56 | 41 | 1.0 | 1.0 | 0.00 | 0.01 | 0.01 | 84 | 1013.0 |
| 20260504023413 | 56 | 41 | 0.0 | 0.0 | 0.00 | 0.01 | 0.01 | 83 | 1013.1 |
| 20260504022909 | 56 | 41 | 0.0 | 0.0 | 0.00 | 0.01 | 0.01 | 82 | 1013.2 |
| 20260504022406 | 56 | 41 | 0.0 | 0.0 | 0.00 | 0.01 | 0.01 | 82 | 1013.0 |
| 20260504021902 | 56 | 41 | 0.0 | 0.0 | 0.00 | 0.01 | 0.01 | 82 | 1012.9 |
| 20260504021400 | 57 | 41 | 0.0 | 0.0 | 0.00 | 0.01 | 0.01 | 81 | 1013.1 |
| 20260504020857 | 57 | 41 | 0.0 | 0.0 | 0.00 | 0.01 | 0.01 | 81 | 1012.9 |
| 20260504020353 | 57 | 41 | 0.0 | 0.0 | 0.00 | 0.01 | 0.01 | 81 | 1012.7 |
| 20260504015849 | 57 | 41 | 0.0 | 0.0 | 0.00 | 0.01 | 0.01 | 80 | 1012.9 |
| 20260504015346 | 57 | 41 | 0.0 | 0.0 | 0.00 | 0.01 | 0.01 | 79 | 1012.7 |
| 20260504014842 | 58 | 41 | 0.0 | 0.0 | 0.00 | 0.01 | 0.01 | 79 | 1012.8 |
| 20260504014338 | 58 | 41 | 0.0 | 0.0 | 0.00 | 0.01 | 0.01 | 79 | 1012.7 |
| 20260504013836 | 58 | 41 | 0.0 | 1.0 | 0.00 | 0.01 | 0.01 | 78 | 1012.6 |
| 20260504013333 | 59 | 40 | 1.0 | 1.0 | 0.00 | 0.01 | 0.01 | 77 | 1012.6 |
| 20260504012830 | 59 | 40 | 0.0 | 0.0 | 0.00 | 0.01 | 0.01 | 77 | 1012.6 |
| 20260504012328 | 59 | 40 | 0.0 | 1.0 | 0.00 | 0.01 | 0.01 | 75 | 1012.6 |
| 20260504011825 | 60 | 39 | 1.0 | 1.0 | 0.00 | 0.01 | 0.01 | 74 | 1012.4 |
| 20260504011321 | 60 | 29 | 0.0 | 0.0 | 0.00 | 0.01 | 0.01 | 73 | 1012.3 |
| 20260504010817 | 61 | 29 | 0.0 | 0.0 | 0.00 | 0.01 | 0.01 | 72 | 1012.2 |
| 20260504010313 | 61 | 29 | 0.0 | 0.0 | 0.00 | 0.01 | 0.01 | 70 | 1012.2 |
| 20260504005810 | 62 | 29 | 0.0 | 0.0 | 0.00 | 0.01 | 0.01 | 67 | 1012.1 |
| 20260504005307 | 62 | 29 | 0.0 | 0.0 | 0.00 | 0.01 | 0.01 | 63 | 1012.1 |
| 20260504004804 | 62 | 28 | 1.0 | 1.0 | 0.00 | 0.01 | 0.01 | 61 | 1012.0 |
| 20260504004302 | 62 | 28 | 0.0 | 0.0 | 0.00 | 0.01 | 0.01 | 57 | 1011.9 |
| 20260504003758 | 63 | 28 | 0.0 | 0.0 | 0.00 | 0.01 | 0.01 | 56 | 1011.9 |
| 20260504003255 | 63 | 27 | 0.0 | 0.0 | 0.00 | 0.01 | 0.01 | 56 | 1012.0 |
| 20260504002751 | 64 | 27 | 0.0 | 0.0 | 0.00 | 0.01 | 0.01 | 56 | 1011.7 |
| 20260504002249 | 64 | 27 | 0.0 | 0.0 | 0.00 | 0.01 | 0.01 | 53 | 1011.8 |
| 20260504001746 | 65 | 27 | 0.0 | 0.0 | 0.00 | 0.01 | 0.01 | 49 | 1011.9 |
| 20260504001243 | 66 | 27 | 0.0 | 0.0 | 0.00 | 0.01 | 0.01 | 48 | 1012.0 |
| 20260504000740 | 67 | 27 | 0.0 | 1.0 | 0.00 | 0.01 | 0.01 | 49 | 1011.9 |
| 20260504000237 | 67 | 18 | 1.0 | 2.0 | 0.00 | 0.01 | 0.01 | 48 | 1011.7 |
| 20260503235735 | 68 | 16 | 1.0 | 2.0 | 0.00 | 0.01 | 0.01 | 45 | 1011.9 |
| 20260503235232 | 68 | 348 | 2.0 | 3.0 | 0.00 | 0.01 | 0.01 | 44 | 1011.7 |
| 20260503234730 | 68 | 1 | 1.0 | 2.0 | 0.00 | 0.01 | 0.01 | 44 | 1011.6 |
| 20260503234228 | 68 | 351 | 2.0 | 3.0 | 0.00 | 0.01 | 0.01 | 42 | 1011.9 |
| 20260503233725 | 69 | 317 | 3.0 | 3.0 | 0.00 | 0.01 | 0.01 | 42 | 1011.6 |
| 20260503233220 | 69 | 354 | 2.0 | 3.0 | 0.00 | 0.01 | 0.01 | 44 | 1011.9 |
| 20260503232717 | 69 | 310 | 3.0 | 5.0 | 0.00 | 0.01 | 0.01 | 42 | 1011.8 |
| 20260503232214 | 69 | 317 | 3.0 | 3.0 | 0.00 | 0.01 | 0.01 | 44 | 1011.8 |
| 20260503231713 | 69 | 300 | 3.0 | 5.0 | 0.00 | 0.01 | 0.01 | 43 | 1011.6 |
| 20260503231209 | 69 | 298 | 4.0 | 5.0 | 0.00 | 0.01 | 0.01 | 44 | 1011.7 |
| 20260503230705 | 69 | 302 | 4.0 | 5.0 | 0.00 | 0.01 | 0.01 | 44 | 1012.0 |
| 20260503230202 | 69 | 299 | 5.0 | 7.0 | 0.00 | 0.01 | 0.01 | 40 | 1012.0 |
| 20260503225659 | 69 | 280 | 6.0 | 9.0 | 0.00 | 0.01 | 0.01 | 41 | 1011.8 |
| 20260503225154 | 69 | 279 | 6.0 | 9.0 | 0.00 | 0.01 | 0.01 | 39 | 1012.0 |
| 20260503224652 | 69 | 304 | 3.0 | 3.0 | 0.00 | 0.01 | 0.01 | 42 | 1011.8 |
| 20260503224149 | 69 | 337 | 2.0 | 3.0 | 0.00 | 0.01 | 0.01 | 43 | 1011.8 |
| 20260503223647 | 69 | 343 | 3.0 | 5.0 | 0.00 | 0.01 | 0.01 | 41 | 1012.0 |